User: anonymous   Login
Location: Unspecified
(0.0000°N, 0.0000°E)
Time: 06:51:16
(UTC+00:00)
Language:

ONEWEB-0195 - Orbit

View from above orbital plane
View from above orbital plane
View from above satellite
View from above satellite

Ground track
Ground track

The orbit is defined by the following mean orbital elements,

1 48240U          26145.37456391 +.00000000 +00000-0 -10171-3 0 00001
2 48240  87.8954 294.2462 0001513 107.5027 252.6268 13.14505118    02
Epoch (UTC): 25 May 2026 08:59:22
Eccentricity: 0.0001513
inclination: 87.8954°
perigee height: 1205 km
apogee height: 1207 km
right ascension of ascending node: 294.2462°
argument of perigee: 107.5027°
revolutions per day: 13.14505118
mean anomaly at epoch: 252.6268°

The dashed part of the orbit path shows where the satellite is in the earth's shadow,  

DLR